Flag for Canada Weather past 2 weeks in Morden, Manitoba, Canada

Now
53 °F

Cool.


Feels Like: 49 °F
Forecast: 46 / 67 °F
Wind: 9 mph from West

Location: Morden CDA CS

Current Time: Oct 24, 2014 at 2:28:12 AM

Latest Report: Oct 24, 2014 at 2:00 AM


Visibility: N/A

Pressure: 29.67 "Hg

Humidity: 52%

Dew point: 35 °F

Location of MordenLocation

Historic Weather in Morden — Graph

°F

Morden temperature yesterday

Maximum temperature yesterday: 68 °F (at 3:00 PM)
Minimum temperature yesterday: 46 °F (at 8:00 AM)
Average temperature yesterday: 55 °F

Past Weeks' High & Low Weather Summary

 TemperatureHumidityPressure
High75 °F (Oct 15, 2:00 PM)98% (Oct 20, 10:00 AM)30.32 "Hg (Oct 20, 10:00 AM)
Low26 °F (Oct 10, 1:00 AM)23% (Oct 15, 2:00 PM)29.44 "Hg (Oct 16, 11:00 AM)
Average50 °F64%29.89 "Hg
* Reported Oct 9 1:00 AM — Oct 24 1:00 AM, Morden, Weather by CustomWeather, © 2014

Note: Actual official high and low records may vary slightly from our data, if they occured in-between our weather recording intervals... More about our weather records

Advertising

Morden weather history for previous 24 hours

 ConditionsComfort  
Time TempWeatherWind HumidityBarometerVisibility
1:00 AM
Oct 24
52 °FCool.5 mph52%29.68 "HgN/A
12:00 AM49 °FCool.3 mph57%29.68 "HgN/A
11:00 PM
Oct 23
56 °FRefreshingly cool.3 mph45%29.70 "HgN/A
10:00 PM56 °FRefreshingly cool.6 mph44%29.72 "HgN/A
9:00 PM51 °FCool.3 mph57%29.74 "HgN/A
8:00 PM53 °FCool.2 mph53%29.74 "HgN/A
7:00 PM55 °FCool.3 mph49%29.74 "HgN/A
6:00 PM59 °FRefreshingly cool.3 mph42%29.73 "HgN/A
5:00 PM65 °FMild.6 mph31%29.73 "HgN/A
4:00 PM67 °FMild.6 mph26%29.73 "HgN/A
3:00 PM68 °FMild.12 mph28%29.73 "HgN/A
2:00 PM66 °FMild.10 mph34%29.74 "HgN/A
1:00 PM63 °FMild.8 mph44%29.77 "HgN/A
12:00 PM60 °FRefreshingly cool.7 mph52%29.78 "HgN/A
11:00 AM54 °FCool.5 mph61%29.80 "HgN/A
10:00 AM49 °FCool.5 mph71%29.80 "HgN/A
9:00 AM47 °FCool.7 mph72%29.79 "HgN/A
8:00 AM46 °FCool.6 mph80%29.78 "HgN/A
7:00 AM48 °FCool.6 mph77%29.77 "HgN/A
6:00 AM49 °FCool.7 mph81%29.78 "HgN/A
5:00 AM50 °FCool.9 mph80%29.76 "HgN/A
4:00 AM49 °FCool.3 mph83%29.76 "HgN/A
3:00 AM51 °FCool.9 mph79%29.75 "HgN/A
2:00 AM50 °FCool.5 mph80%29.75 "HgN/A
Weather by CustomWeather, © 2014

See weather overviewHow to use our weather pages